This is the latest recevied weather packets stored in our database for station/object K4XP. If no packets are shown the sender has not sent any weather packets the latest 10 day(s).
| Time | Temp. | Humidity | Pressure | Rain* | Wind** | Luminosity | Snow |
|---|---|---|---|---|---|---|---|
| 1777992317 | 19.44° C | 63% | 1016.8 hPa | 0 mm | - | - | - |
| 1777992012 | 19.44° C | 66% | 1016.8 hPa | 0 mm | - | - | - |
| 1777991729 | 18.89° C | 66% | 1016.7 hPa | 0 mm | - | - | - |
| 1777991430 | 18.89° C | 67% | 1016.7 hPa | 0 mm | - | - | - |
| 1777991126 | 18.89° C | 69% | 1016.8 hPa | 0 mm | - | - | - |
| 1777990822 | 18.89° C | 71% | 1016.8 hPa | 0 mm | - | - | - |
| 1777989930 | 18.33° C | 72% | 1016.6 hPa | 0 mm | - | - | - |
| 1777989625 | 17.78° C | 74% | 1016.5 hPa | 0 mm | - | - | - |
| 1777989325 | 17.78° C | 75% | 1016.5 hPa | 0 mm | - | - | - |
| 1777989021 | 17.22° C | 76% | 1016.5 hPa | 0 mm | - | - | - |
| 1777988718 | 17.22° C | 76% | 1016.5 hPa | 0 mm | - | - | - |
| 1777988413 | 16.67° C | 77% | 1016.5 hPa | 0 mm | - | - | - |
| 1777988129 | 16.67° C | 77% | 1016.5 hPa | 0 mm | - | - | - |
| 1777987826 | 16.67° C | 77% | 1016.4 hPa | 0 mm | - | - | - |
| 1777987520 | 16.11° C | 78% | 1016.4 hPa | 0 mm | - | - | - |
| 1777987217 | 16.11° C | 79% | 1016.4 hPa | 0 mm | - | - | - |
| 1777986913 | 16.11° C | 79% | 1016.4 hPa | 0 mm | - | - | - |
| 1777986630 | 15.56° C | 79% | 1016.5 hPa | 0 mm | - | - | - |
| 1777986327 | 15.56° C | 79% | 1016.5 hPa | 0 mm | - | - | - |
| 1777986023 | 15.56° C | 80% | 1016.4 hPa | 0 mm | - | - | - |
| 1777985717 | 15° C | 80% | 1016.4 hPa | 0 mm | - | - | - |
| 1777985412 | 15° C | 80% | 1016.4 hPa | 0 mm | - | - | - |
| 1777985126 | 15° C | 80% | 1016.4 hPa | 0 mm | - | - | - |
| 1777984822 | 15° C | 81% | 1016.4 hPa | 0 mm | - | - | - |
| 1777984518 | 14.44° C | 81% | 1016.3 hPa | 0 mm | - | - | - |
* Rain latest hour (hover to see other rain measurements)
** Current wind speed in m/s (hover to see current wind gust speed)